TimeEST,TemperatureF,Dew PointF,Humidity,Sea Level PressureIn,VisibilityMPH,Wind Direction,Wind SpeedMPH,Gust SpeedMPH,PrecipitationIn,Events,Conditions,WindDirDegrees,DateUTC
12:53 AM,28.0,23.0,81,30.33,10.0,Calm,Calm,-,N/A,,Clear,0,2013-03-09 05:53:00
1:53 AM,27.0,23.0,85,30.32,10.0,North,3.5,-,N/A,,Clear,360,2013-03-09 06:53:00
2:53 AM,27.0,23.0,85,30.30,10.0,ESE,3.5,-,N/A,,Clear,110,2013-03-09 07:53:00
3:53 AM,25.0,21.9,88,30.27,10.0,Calm,Calm,-,N/A,,Clear,0,2013-03-09 08:53:00
4:53 AM,26.1,23.0,88,30.27,10.0,Calm,Calm,-,N/A,,Clear,0,2013-03-09 09:53:00
5:53 AM,25.0,21.9,88,30.28,10.0,Calm,Calm,-,N/A,,Clear,0,2013-03-09 10:53:00
6:53 AM,23.0,21.0,92,30.30,10.0,Calm,Calm,-,N/A,,Clear,0,2013-03-09 11:53:00
7:53 AM,28.9,25.0,85,30.31,10.0,Calm,Calm,-,N/A,,Clear,0,2013-03-09 12:53:00
8:53 AM,35.1,28.0,76,30.31,10.0,ENE,3.5,-,N/A,,Clear,70,2013-03-09 13:53:00
9:53 AM,42.1,27.0,55,30.29,10.0,Variable,4.6,-,N/A,,Clear,0,2013-03-09 14:53:00
10:53 AM,48.0,28.0,46,30.28,10.0,Calm,Calm,-,N/A,,Clear,0,2013-03-09 15:53:00
11:53 AM,54.0,25.0,33,30.27,10.0,Calm,Calm,-,N/A,,Clear,0,2013-03-09 16:53:00
12:53 PM,57.9,25.0,28,30.24,10.0,Variable,3.5,-,N/A,,Partly Cloudy,0,2013-03-09 17:53:00
1:53 PM,61.0,19.0,20,30.21,10.0,SW,5.8,-,N/A,,Partly Cloudy,220,2013-03-09 18:53:00
2:53 PM,64.0,18.0,17,30.18,10.0,Calm,Calm,-,N/A,,Clear,0,2013-03-09 19:53:00
3:53 PM,64.0,19.0,18,30.17,10.0,East,3.5,-,N/A,,Partly Cloudy,80,2013-03-09 20:53:00
4:53 PM,64.9,21.0,19,30.17,10.0,West,4.6,-,N/A,,Partly Cloudy,260,2013-03-09 21:53:00
5:53 PM,61.0,28.0,29,30.16,10.0,ENE,3.5,-,N/A,,Partly Cloudy,60,2013-03-09 22:53:00
6:53 PM,57.9,25.0,28,30.17,10.0,Calm,Calm,-,N/A,,Partly Cloudy,0,2013-03-09 23:53:00
7:53 PM,48.0,28.9,48,30.17,10.0,North,3.5,-,N/A,,Partly Cloudy,360,2013-03-10 00:53:00
8:53 PM,48.9,27.0,43,30.18,10.0,Calm,Calm,-,N/A,,Partly Cloudy,0,2013-03-10 01:53:00
9:53 PM,43.0,28.9,58,30.19,10.0,Calm,Calm,-,N/A,,Scattered Clouds,0,2013-03-10 02:53:00
10:53 PM,46.9,30.9,54,30.19,10.0,Calm,Calm,-,N/A,,Mostly Cloudy,0,2013-03-10 03:53:00
11:53 PM,50.0,28.0,43,30.17,10.0,Calm,Calm,-,N/A,,Mostly Cloudy,0,2013-03-10 04:53:00